www.pogodaiklimat.ru

Погода и климат >> Архив погоды >> Австралия >> Rowley Shoals


ПОГОДА в Rowley Shoals

  • Прогноз погоды в Rowley Shoals
  • Монитор погоды в Rowley Shoals
  • Климат города

АРХИВ ПОГОДЫ в Rowley Shoals

Время (UTC), дата Ветер
(напр.,м/с)
 
Видим.   Явления Облачность Т
(С)
Тd
(С)
f
(%)
Тe
(С)
Тes
(С)
Комфортность P
(гПа)
Po
(гПа)
Тmin
(С)
Tmax
(С)
R
(мм)
S
(см)
01 21.03 В 6 н/о н/о +29.9 +25 +25 комфорт 1007.0 1006.2
02 21.03 В 7 н/о н/о +29.7 +25 +25 комфорт 1006.8 1006.0
03 21.03 В 8 н/о н/о +29.9 +25 +25 комфорт 1005.7 1004.9
04 21.03 В 8 н/о н/о +30.1 +25 +25 комфорт 1005.1 1004.3
05 21.03 В 10 н/о н/о +30.0 +25 +25 комфорт 1004.5 1003.7
06 21.03 В 9 н/о н/о +29.8 +25 +25 комфорт 1004.1 1003.3
07 21.03 В 9 н/о н/о +29.5 +24 +24 комфорт 1003.6 1002.8
08 21.03 В 10 н/о н/о +29.0 +24 +24 комфорт 1003.5 1002.7
09 21.03 В 8 н/о н/о +29.0 +24 +24 комфорт 1003.5 1002.7
10 21.03 СВ 10 н/о н/о +29.1 +24 +24 комфорт 1003.9 1003.1
11 21.03 СВ 8 н/о н/о +29.1 +24 +24 комфорт 1004.4 1003.6
12 21.03 СВ 9 н/о н/о +28.6 +24 +24 комфорт 1005.3 1004.5
13 21.03 СВ 7 н/о н/о +28.3 +23 +23 комфорт 1005.5 1004.7
14 21.03 СВ 7 н/о н/о +28.7 +24 +24 комфорт 1005.6 1004.8
15 21.03 С 6 н/о н/о +28.9 +24 +24 комфорт 1005.6 1004.8
17 21.03 С 4 н/о н/о +28.7 +24 +24 комфорт 1005.0 1004.2
16 21.03 С 11 н/о н/о +24.7 +21 +21 комфорт 1005.4 1004.6
18 21.03 С 8 н/о н/о +29.4 +24 +24 комфорт 1004.0 1003.2
19 21.03 С 10 н/о н/о +27.3 +23 +23 комфорт 1003.7 1002.9
20 21.03 С 7 н/о н/о +28.0 +23 +23 комфорт 1003.6 1002.8
21 21.03 СВ 8 н/о н/о +28.5 +24 +24 комфорт 1003.8 1003.0
23 21.03 СВ 10 н/о н/о +28.7 +24 +24 комфорт 1004.6 1003.8
22 21.03 СВ 10 н/о н/о +28.7 +24 +24 комфорт 1004.2 1003.4
00 22.03 СВ 10 н/о н/о +28.8 +24 +24 комфорт 1004.9 1004.1
01 22.03 СВ 10 н/о н/о +28.8 +24 +24 комфорт 1005.0 1004.2
02 22.03 СВ 10 н/о н/о +29.0 +24 +24 комфорт 1005.0 1004.2
03 22.03 С 10 н/о н/о +29.3 +24 +24 комфорт 1004.6 1003.8
05 22.03 С 11 н/о н/о +29.5 +24 +24 комфорт 1002.3 1001.5
04 22.03 СВ 11 н/о н/о +29.3 +24 +24 комфорт 1003.3 1002.5
06 22.03 С 12 н/о н/о +28.7 +24 +24 комфорт 1001.7 1000.9
07 22.03 С 9 н/о н/о +29.0 +24 +24 комфорт 1001.6 1000.8
08 22.03 С 10 н/о н/о +28.9 +24 +24 комфорт 1001.5 1000.7
09 22.03 С 10 н/о н/о +29.0 +24 +24 комфорт 1001.7 1000.9
11 22.03 С 9 н/о н/о +29.0 +24 +24 комфорт 1002.8 1002.0
10 22.03 С 9 н/о н/о +29.0 +24 +24 комфорт 1002.3 1001.5
12 22.03 С 9 н/о н/о +27.6 +23 +23 комфорт 1003.2 1002.4
13 22.03 С 11 н/о н/о +28.3 +23 +23 комфорт 1003.4 1002.6
14 22.03 С 10 н/о н/о +28.2 +23 +23 комфорт 1002.9 1002.1
15 22.03 СЗ 8 н/о н/о +27.0 +22 +22 комфорт 1003.2 1002.4
17 22.03 СЗ 11 н/о н/о +28.6 +24 +24 комфорт 1001.6 1000.8
16 22.03 С 9 н/о н/о +26.1 +22 +22 комфорт 1002.9 1002.1
18 22.03 С 13 н/о н/о +27.2 +22 +22 комфорт 1000.8 1000.0
19 22.03 СЗ 12 н/о н/о +29.5 +24 +24 комфорт 1000.9 1000.1
20 22.03 С 10 н/о н/о +28.5 +24 +24 комфорт 1001.0 1000.2
21 22.03 СЗ 9 н/о н/о +27.8 +23 +23 комфорт 1001.5 1000.7
22 22.03 СЗ 11 н/о н/о +27.0 +22 +22 комфорт 1002.1 1001.3
23 22.03 СЗ 9 н/о н/о +27.4 +23 +23 комфорт 1002.8 1002.0
00 23.03 СЗ 8 н/о н/о +28.1 +23 +23 комфорт 1003.6 1002.8
01 23.03 СЗ 10 н/о н/о +28.5 +24 +24 комфорт 1003.9 1003.1
02 23.03 СЗ 11 н/о н/о +28.7 +24 +24 комфорт 1004.0 1003.2
03 23.03 СЗ 12 н/о н/о +28.9 +24 +24 комфорт 1003.5 1002.7
04 23.03 З 11 н/о н/о +28.7 +24 +24 комфорт 1003.6 1002.8
05 23.03 СЗ 9 н/о н/о +28.5 +24 +24 комфорт 1003.0 1002.2
06 23.03 З 12 н/о н/о +29.5 +24 +24 комфорт 1002.9 1002.1
07 23.03 СЗ 12 н/о н/о +29.5 +24 +24 комфорт 1002.9 1002.1
08 23.03 З 12 н/о н/о +29.4 +24 +24 комфорт 1003.1 1002.3
09 23.03 З 11 н/о н/о +29.2 +24 +24 комфорт 1003.7 1002.9
10 23.03 З 11 н/о н/о +29.0 +24 +24 комфорт 1004.2 1003.4
11 23.03 СЗ 11 н/о н/о +28.1 +23 +23 комфорт 1005.0 1004.2
12 23.03 СЗ 10 н/о н/о +28.8 +24 +24 комфорт 1005.7 1004.9
13 23.03 З 11 н/о н/о +29.4 +24 +24 комфорт 1006.2 1005.4
14 23.03 З 12 н/о н/о +29.3 +24 +24 комфорт 1006.4 1005.6
15 23.03 З 12 н/о н/о +29.2 +24 +24 комфорт 1006.7 1005.9
16 23.03 З 11 н/о н/о +29.2 +24 +24 комфорт 1006.5 1005.7
17 23.03 З 12 н/о н/о +29.1 +24 +24 комфорт 1005.8 1005.0
18 23.03 З 12 н/о н/о +29.0 +24 +24 комфорт 1005.7 1004.9
20 23.03 З 9 н/о н/о +28.8 +24 +24 комфорт 1005.4 1004.6
19 23.03 З 10 н/о н/о +28.8 +24 +24 комфорт 1005.7 1004.9
21 23.03 З 8 н/о н/о +28.6 +24 +24 комфорт 1005.7 1004.9
22 23.03 З 8 н/о н/о +28.8 +24 +24 комфорт 1006.6 1005.8
23 23.03 З 7 н/о н/о +28.8 +24 +24 комфорт 1007.4 1006.6
00 24.03 З 7 н/о н/о +29.0 +24 +24 комфорт 1007.9 1007.1
02 24.03 З 5 н/о н/о +29.2 +24 +24 комфорт 1008.0 1007.2
01 24.03 СЗ 5 н/о н/о +28.9 +24 +24 комфорт 1008.2 1007.4
03 24.03 З 3 н/о н/о +29.2 +24 +24 комфорт 1007.9 1007.1
04 24.03 З 3 н/о н/о +29.2 +24 +24 комфорт 1007.3 1006.5
05 24.03 З 3 н/о н/о +29.6 +25 +25 комфорт 1006.5 1005.7
06 24.03 З 2 н/о н/о +29.6 +25 +25 комфорт 1005.8 1005.0
08 24.03 З 2 н/о н/о +29.7 +25 +25 комфорт 1005.5 1004.7
07 24.03 З 3 н/о н/о +29.5 +24 +24 комфорт 1005.4 1004.6
09 24.03 С 10 н/о н/о +26.2 +22 +22 комфорт 1005.9 1005.1
10 24.03 С 6 н/о н/о +26.9 +22 +22 комфорт 1006.3 1005.5
11 24.03 С 6 н/о н/о +26.9 +22 +22 комфорт 1006.6 1005.8
12 24.03 С 4 н/о н/о +27.9 +23 +23 комфорт 1007.0 1006.2
14 24.03 З 5 н/о н/о +27.9 +23 +23 комфорт 1007.7 1006.9
13 24.03 З 2 н/о н/о +28.0 +23 +23 комфорт 1007.6 1006.8
15 24.03 З 6 н/о н/о +28.1 +23 +23 комфорт 1007.5 1006.7
16 24.03 З 5 н/о н/о +28.2 +23 +23 комфорт 1007.3 1006.5
17 24.03 ЮЗ 6 н/о н/о +28.8 +24 +24 комфорт 1006.7 1005.9
18 24.03 ЮЗ 7 н/о н/о +28.7 +24 +24 комфорт 1006.3 1005.5
19 24.03 ЮЗ 6 н/о н/о +28.5 +24 +24 комфорт 1005.9 1005.1
20 24.03 ЮЗ 8 н/о н/о +28.6 +24 +24 комфорт 1005.9 1005.1
21 24.03 ЮЗ 8 н/о н/о +28.5 +24 +24 комфорт 1006.3 1005.5
22 24.03 ЮЗ 8 н/о н/о +28.5 +24 +24 комфорт 1007.0 1006.2
23 24.03 ЮЗ 7 н/о н/о +28.6 +24 +24 комфорт 1007.3 1006.5
00 25.03 ЮЗ 7 н/о н/о +28.6 +24 +24 комфорт 1008.3 1007.5
01 25.03 ЮЗ 6 н/о н/о +28.7 +24 +24 комфорт 1009.0 1008.2
02 25.03 ЮЗ 4 н/о н/о +28.7 +24 +24 комфорт 1009.4 1008.6
03 25.03 ЮЗ 4 н/о н/о +28.6 +24 +24 комфорт 1008.1 1007.3
04 25.03 ЮЗ 5 н/о н/о +28.6 +24 +24 комфорт 1007.1 1006.3
05 25.03 ЮЗ 5 н/о н/о +28.6 +24 +24 комфорт 1006.4 1005.6
06 25.03 ЮЗ 4 н/о н/о +28.9 +24 +24 комфорт 1006.3 1005.5
07 25.03 ЮЗ 4 н/о н/о +28.8 +24 +24 комфорт 1005.6 1004.8
08 25.03 ЮЗ 4 н/о н/о +28.8 +24 +24 комфорт 1005.6 1004.8
09 25.03 ЮЗ 5 н/о н/о +28.7 +24 +24 комфорт 1005.8 1005.0
10 25.03 З 5 н/о н/о +28.6 +24 +24 комфорт 1005.9 1005.1
11 25.03 ЮЗ 5 н/о н/о +28.7 +24 +24 комфорт 1006.5 1005.7
12 25.03 ЮЗ 4 н/о н/о +28.7 +24 +24 комфорт 1007.7 1006.9
13 25.03 З 4 н/о н/о +28.7 +24 +24 комфорт 1008.5 1007.7
14 25.03 З 4 н/о н/о +28.7 +24 +24 комфорт 1008.7 1007.9
15 25.03 З 4 н/о н/о +28.7 +24 +24 комфорт 1008.4 1007.6
17 25.03 ЮЗ 5 н/о н/о +28.3 +23 +23 комфорт 1007.2 1006.4
16 25.03 З 5 н/о н/о +28.7 +24 +24 комфорт 1007.9 1007.1
18 25.03 ЮЗ 5 н/о н/о +28.2 +23 +23 комфорт 1006.7 1005.9
19 25.03 ЮЗ 5 н/о н/о +28.2 +23 +23 комфорт 1006.3 1005.5
20 25.03 ЮЗ 5 н/о н/о +28.3 +23 +23 комфорт 1006.3 1005.5
21 25.03 ЮЗ 6 н/о н/о +28.2 +23 +23 комфорт 1006.1 1005.3
23 25.03 Ю 6 н/о н/о +28.6 +24 +24 комфорт 1007.3 1006.5
22 25.03 ЮЗ 6 н/о н/о +28.5 +24 +24 комфорт 1006.9 1006.1
00 26.03 Ю 5 н/о н/о +28.7 +24 +24 комфорт 1007.6 1006.8
01 26.03 Ю 5 н/о н/о +29.2 +24 +24 комфорт 1008.0 1007.2
02 26.03 Ю 6 н/о н/о +29.0 +24 +24 комфорт 1007.7 1006.9
03 26.03 Ю 5 н/о н/о +29.0 +24 +24 комфорт 1007.5 1006.7
05 26.03 Ю 6 н/о н/о +29.3 +24 +24 комфорт 1006.2 1005.4
04 26.03 Ю 6 н/о н/о +29.0 +24 +24 комфорт 1006.6 1005.8
06 26.03 ЮЗ 6 н/о н/о +29.5 +24 +24 комфорт 1005.8 1005.0
07 26.03 ЮЗ 6 н/о н/о +29.6 +25 +25 комфорт 1005.8 1005.0
08 26.03 ЮЗ 6 н/о н/о +29.6 +25 +25 комфорт 1005.7 1004.9
09 26.03 Ю 5 н/о н/о +28.5 +24 +24 комфорт 1005.6 1004.8
11 26.03 Ю 4 н/о н/о +29.1 +24 +24 комфорт 1006.9 1006.1
10 26.03 Ю 5 н/о н/о +28.7 +24 +24 комфорт 1006.1 1005.3
12 26.03 Ю 5 н/о н/о +29.1 +24 +24 комфорт 1007.7 1006.9
13 26.03 ЮЗ 5 н/о н/о +29.1 +24 +24 комфорт 1008.4 1007.6
14 26.03 З 5 н/о н/о +29.2 +24 +24 комфорт 1008.6 1007.8
15 26.03 Ю 6 н/о н/о +26.7 +22 +22 комфорт 1008.0 1007.2
17 26.03 В 3 н/о н/о +26.4 +22 +22 комфорт 1007.6 1006.8
16 26.03 ЮВ 4 н/о н/о +26.3 +22 +22 комфорт 1008.3 1007.5
18 26.03 С 3 н/о н/о +26.9 +22 +22 комфорт 1007.4 1006.6
19 26.03 С 4 н/о н/о +27.5 +23 +23 комфорт 1007.3 1006.5
20 26.03 С 4 н/о н/о +27.5 +23 +23 комфорт 1007.1 1006.3
21 26.03 СЗ 4 н/о н/о +27.7 +23 +23 комфорт 1007.3 1006.5
22 26.03 СЗ 5 н/о н/о +28.2 +23 +23 комфорт 1008.0 1007.2
23 26.03 С 6 н/о н/о +28.2 +23 +23 комфорт 1008.4 1007.6
00 27.03 С 7 н/о н/о +28.1 +23 +23 комфорт 1009.2 1008.4
01 27.03 СЗ 5 н/о н/о +28.4 +23 +23 комфорт 1010.0 1009.2
02 27.03 СЗ 6 н/о н/о +28.2 +23 +23 комфорт 1010.1 1009.3
03 27.03 СЗ 6 н/о н/о +28.2 +23 +23 комфорт 1009.8 1009.0
04 27.03 СЗ 5 н/о н/о +28.3 +23 +23 комфорт 1009.2 1008.4
05 27.03 СЗ 4 н/о н/о +28.6 +24 +24 комфорт 1009.1 1008.3
06 27.03 СЗ 5 н/о н/о +28.9 +24 +24 комфорт 1008.1 1007.3
07 27.03 З 6 н/о н/о +29.0 +24 +24 комфорт 1007.6 1006.8
08 27.03 З 5 н/о н/о +29.2 +24 +24 комфорт 1007.5 1006.7
09 27.03 З 6 н/о н/о +29.0 +24 +24 комфорт 1007.4 1006.6
10 27.03 З 6 н/о н/о +28.8 +24 +24 комфорт 1007.7 1006.9
11 27.03 З 5 н/о н/о +28.7 +24 +24 комфорт 1008.5 1007.7
12 27.03 З 5 н/о н/о +28.8 +24 +24 комфорт 1009.4 1008.6
13 27.03 З 6 н/о н/о +28.6 +24 +24 комфорт 1009.6 1008.8
14 27.03 З 5 н/о н/о +28.7 +24 +24 комфорт 1010.0 1009.2
15 27.03 З 4 н/о н/о +28.7 +24 +24 комфорт 1010.1 1009.3
16 27.03 З 4 н/о н/о +28.6 +24 +24 комфорт 1009.7 1008.9
17 27.03 З 3 н/о н/о +28.5 +24 +24 комфорт 1009.4 1008.6
18 27.03 З 4 н/о н/о +28.4 +23 +23 комфорт 1008.7 1007.9
20 27.03 З 3 н/о н/о +28.3 +23 +23 комфорт 1008.7 1007.9
19 27.03 З 4 н/о н/о +28.3 +23 +23 комфорт 1008.5 1007.7
21 27.03 З 3 н/о н/о +28.2 +23 +23 комфорт 1009.1 1008.3
22 27.03 З 3 н/о н/о +28.3 +23 +23 комфорт 1009.8 1009.0
23 27.03 З 3 н/о н/о +28.3 +23 +23 комфорт 1010.2 1009.4
00 28.03 СЗ 3 н/о н/о +28.7 +24 +24 комфорт 1010.6 1009.8
01 28.03 СЗ 4 н/о н/о +28.4 +23 +23 комфорт 1011.1 1010.3

 

Местоположение метеостанции Rowley Shoals (Западная Австралия, Австралия): широта -17.53 долгота 118.95 высота над уровнем моря 8 м.

В архиве по умолчанию представлена погода в Rowley Shoals за последнюю неделю. Архивные данные за месяц целиком и за предыдущие месяцы, начиная с января 2011 года, Вы можете получить, выбрав интересующий диапазон дат из раскрывающегося списка и нажав кнопку "Ввод!".

Внимание! Время в таблицах - всемирное. Для получения местного времени необходимо прибавить поправку, которая в Rowley Shoals равна 8 ч.

Смотрите также архив погоды в соседних городах и на ближайших метеорологических станциях:

Погода в Mandora (Западная Австралия, Австралия) (316 км)
Погода в Port Hedland Apardoo (Западная Австралия, Австралия) (317 км)
Погода в Broome Airport (Западная Австралия, Австралия) (351 км)
Погода в West Roebuck (Западная Австралия, Австралия) (359 км)
Погода в Roebourne Aero (Западная Австралия, Австралия) (405 км)
Погода в Marble Bar (Западная Австралия, Австралия) (415 км)
Погода в Karratha Aero (Западная Австралия, Австралия) (422 км)
Погода в Varanus Island (Западная Австралия, Австралия) (497 км)
Погода в Derby Aero (Северная территория, Австралия) (500 км)
Погода в Adele Island (Западная Австралия, Австралия) (501 км)

Пояснения к столбцам:

Ветер - указаны скорость ветра в м/с - средняя за 10 мин, порывы в срок и между сроками (в фигурных скобках) и направление, откуда дует ветер: С - северный, СВ - северо-восточный, В - восточный, ЮВ - юго-восточный, Ю - южный, ЮЗ - юго-западный, З - западный, СЗ - северо-западный.
Видимость - горизонтальная дальность видимости в метрах или километрах. При видимости от 1 до 10 км при отсутствии осадков обычно наблюдается дымка, при ухудшении видимости до 1 км и менее - туман. В сухую погоду видимость может ухудшаться дымом, пылью или мглою.
Явления - указаны атмосферные явления, наблюдавшиеся в срок или в последний час перед сроком; фигурными скобками обозначены явления, наблюдавшиеся между сроками (за 1-3 часа до срока); квадратными скобками обозначены град или гололедные отложения с указанием их диаметра в мм.
Облачность - указаны через наклонную черту общая и нижняя облачность в баллах и высота нижней границы облаков в метрах; квадратными скобками обозначены формы облаков: Ci - перистые, Cs - перисто-слоистые, Cc - перисто-кучевые, Ac - высококучевые, As - высокослоистые, Sc - слоисто-кучевые, Ns - слоисто-дождевые, Cu - кучевые, Cb - кучево-дождевые. Подробнее классификацию облаков см. в Атласе облаков (PDF).
T - Температура воздуха - температура, измеренная на высоте 2 м над землей.
Td - Температура точки росы - температура, при понижении до которой содержащийся в воздухе водяной пар достигнет насыщения.
f - Относительная влажность воздуха - влажноcть воздуха, измеренная на высоте 2 м над землей.
Te - Эффективная температура - температура, которую ощущает одетый по сезону человек в тени. Характеристика душности погоды. При расчете учитывается влияние влажности воздуха и скорости ветра на теплоощущения человека.
Tes - Эффективная температура на солнце - температура, которую ощущает человек, с поправкой на солнечный нагрев. Характеристика знойности погоды. Зависит от высоты солнца над горизонтом, облачности и скорости ветра. Ночью, в пасмурную погоду, а также при ветре 12 м/с и более поправка равна нулю.
P - Атмосферное давление - приведенное к уровню моря атмосферное давление.
Po - Атмосферное давление - измеренное на уровне метеостанции атмосферное давление.
Tmin - Минимальная температура - минимум температуры воздуха на высоте 2 м над землей.
Tmax - Максимальная температура - максимум температуры воздуха на высоте 2 м над землей.
R - Количество осадков - Количество выпавших осадков, мм. При наведении курсора мыши на число - период времени, за который выпало указанное количество осадков.
S - Снежный покров - Высота снежного покрова, см. При наведении курсора мыши на число - состояние снежного покрова и степень покрытия местности в баллах.